This demonstration page uses our WeatherBlox Daily Observations layout. Learn more.

Left ArrowRight Arrow

Hourly Observations for March 29, 2022

Temp ( °F °C ) Dew Point ( °F °C ) Humidity (%) Winds ( mph kmh ) Pressure ( in mb ) Visibility ( mi km ) Precip ( " mm )
12:53 am 00:53 Cloudy with Light Rain 35 1.7 32 0 89 89 NW 21 33 29.76 1008 5 8 0.04 1.02
1:53 am 01:53 Cloudy with Light Snow 34 1.1 32 0 92 92 NW 17 28 29.79 1009 4 6 0.03 0.76
2:02 am 02:02 Cloudy with Light Snow 33 0.6 31 -0.6 92 92 NW 14 22 29.88 1012 3 5 0.01 0.25
2:16 am 02:16 Cloudy with Light Snow 33 0.6 31 -0.6 92 92 WNW 12 19 29.89 1012 2 3 0.01 0.25
2:27 am 02:27 Cloudy with Light Snow 33 0.6 31 -0.6 92 92 NW 12 19 29.89 1012 3 5 0.02 0.51
2:38 am 02:38 Cloudy 34 1.1 31 -0.6 89 89 NW 13 20 29.89 1012 9 14 0.02 0.51
2:53 am 02:53 Cloudy with Light Snow 34 1.1 31 -0.6 89 89 NW 14 22 29.81 1009 8 13 0.02 0.51
3:53 am 03:53 Cloudy 33 0.6 30 -1.1 89 89 NW 14 22 29.83 1010 9 14 0.00 0.00
4:08 am 04:08 Cloudy 33 0.6 30 -1.1 89 89 NW 17 28 29.92 1013 10 16 0.00 0.00
4:53 am 04:53 Cloudy 32 0 28 -2.2 85 85 WNW 17 28 29.86 1011 10 16 0.00 0.00
5:04 am 05:04 Cloudy 32 0 28 -2.2 85 85 NW 15 24 29.96 1015 10 16 0.00 0.00
5:53 am 05:53 Mostly Cloudy 32 0 27 -2.8 82 82 NW 20 31 29.91 1013 10 16 0.00 0.00
6:01 am 06:01 Cloudy 32 0 27 -2.8 82 82 NW 17 28 29.99 1016 10 16 0.00 0.00
6:51 am 06:51 Cloudy 30 -1 27 -3 86 86 NNW 13 20 30.04 1017 10 16 0.00 0.00
6:53 am 06:53 Cloudy 31 -0.6 27 -2.8 85 85 NW 13 20 29.95 1014 10 16 0.00 0.00
7:21 am 07:21 Cloudy 31 -0.6 28 -2.2 89 89 NW 17 28 30.05 1017 10 16 0.00 0.00
7:30 am 07:30 Cloudy 31 -0.6 28 -2.2 89 89 NW 17 28 30.06 1018 10 16 0.00 0.00
7:53 am 07:53 Cloudy 31 -0.6 28 -2.2 89 89 NW 12 19 29.98 1015 10 16 0.00 0.00
8:53 am 08:53 Cloudy 32 0 27 -2.8 82 82 NNW 17 28 30.00 1016 10 16 0.00 0.00
9:38 am 09:38 Cloudy 31 -0.6 26 -3.3 82 82 NW 17 28 30.09 1019 10 16 0.00 0.00
9:53 am 09:53 Cloudy 32 0 26 -3.3 79 79 NW 16 26 30.02 1017 10 16 0.00 0.00
10:53 am 10:53 Cloudy 35 1.7 24 -4.4 64 64 NW 16 26 30.04 1017 10 16 0.00 0.00
11:53 am 11:53 Mostly Cloudy 39 3.9 24 -4.4 55 55 NW 16 26 30.04 1017 10 16 0.00 0.00
12:53 pm 12:53 Mostly Cloudy 41 5 22 -5.6 47 47 NW 17 28 30.04 1017 10 16 0.00 0.00
1:53 pm 13:53 Partly Cloudy 42 5.6 20 -6.7 41 41 NNW 20 31 30.04 1017 10 16 0.00 0.00
2:53 pm 14:53 Mostly Cloudy 45 7.2 18 -7.8 34 34 N 20 31 30.03 1017 10 16 0.00 0.00
3:53 pm 15:53 Mostly Cloudy 45 7.2 16 -8.9 31 31 NW 16 26 30.03 1017 10 16 0.00 0.00
4:53 pm 16:53 Mostly Cloudy 45 7.2 15 -9.4 30 30 NNW 17 28 30.02 1017 10 16 0.00 0.00
5:53 pm 17:53 Mostly Cloudy 46 7.8 15 -9.4 29 29 NW 15 24 30.03 1017 10 16 0.00 0.00
6:53 pm 18:53 Sunny 45 7.2 16 -8.9 31 31 NNW 9 15 30.03 1017 10 16 0.00 0.00
7:53 pm 19:53 Clear 38 3.3 16 -8.9 41 41 NNW 5 7 30.05 1018 10 16 0.00 0.00
8:53 pm 20:53 Clear 31 -0.6 17 -8.3 56 56 W 3 6 30.08 1019 10 16 0.00 0.00
9:53 pm 21:53 Clear 28 -2.2 18 -7.8 66 66 E 5 7 30.09 1019 10 16 0.00 0.00
10:53 pm 22:53 Clear 26 -3.3 19 -7.2 75 75 E 7 11 30.08 1019 10 16 0.00 0.00
11:53 pm 23:53 Clear 24 -4.4 19 -7.2 81 81 Calm 30.08 1019 10 16 0.00 0.00

Powered by AerisWeather